Orbital Elements at Epoch 2459169.5 (2020-Nov-16.0) TDB
Reference: JPL 3 (heliocentric ecliptic J2000)
Element | Value | Uncertainty (1-sigma) | Units |
e | .5589590169374857 | 0.0025042 | |
a | 1.877272788266843 | 0.0094916 | au |
q | .8279542360137154 | 0.00051503 | au |
i | 6.105528501048177 | 0.023277 | deg |
node | 55.48258444574359 | 0.0025179 | deg |
peri | 292.4174626019885 | 0.011527 | deg |
M | 18.57358688726 | 0.15805 | deg |
tp | 2459121.028910089566 (2020-Sep-28.52891009) | 0.044855 | TDB |
period | 939.4842511397337 2.57 | 7.1251 0.01951 | d yr |
n | .3831889673118699 | 0.0029061 | deg/d |
Q | 2.92659134051997 | 0.014797 | au |
|
| | Orbit Determination Parameters
Additional Information
|